Location: ??????
(41.3794°N, 22.5014°E)
Time: 07:43:59
(UTC+00:00)

Cosmos 1328 Rocket - Pass Details

Date: 30 November 2020
Orbit: 602 x 626 km, 82.5° (Epoch: 17 January)

Event Time Altitude Azimuth Distance (km) Brightness Sun altitude
Rises 15:39:31 0° 170° (S) 2,840 7.1 -7.3°
Reaches altitude 10° 15:41:47 10° 164° (SSE) 1,944 6.2 -7.6°
Maximum altitude 15:45:52 44° 92° (E) 843 3.9 -8.4°
Drops below altitude 10° 15:50:00 10° 21° (NNE) 1,970 5.8 -9.1°
Sets 15:52:18 0° 15° (NNE) 2,883 6.6 -9.5°
